Location: Cointrin
(46.2167°N, 6.1167°E)
Time: 17:02:34
(UTC+00:00)

DMSP B5D1-3 - Pass Details

Date: 08 February 2023
Orbit: 766 x 778 km, 98.5° (Epoch: 22 March)

Event Time Altitude Azimuth Distance (km) Brightness Sun altitude
Rises 18:26:45 0° 15° (NNE) 3,255 7.6 -17.1°
Reaches altitude 10° 18:29:05 10° 18° (NNE) 2,325 6.8 -17.5°
Maximum altitude 18:34:13 72° 103° (ESE) 816 4.4 -18.3°
Drops below altitude 10° 18:39:19 10° 188° (S) 2,316 7.1 -19.2°
Sets 18:41:37 0° 190° (S) 3,241 7.9 -19.6°
